Location: Newark
(17.9939°S, 31.0481°E)
Time: 04:50:36
(UTC+00:00)

deb Explorer IX - All Passes

Search period start: 13 November 2019 00:00
Search period end: 23 November 2019 00:00
Orbit: 546 x 1105 km, 38.8° (Epoch: 12 November)

Date Brightness Start Highest point End Pass type
(mag) Time Alt. Az. Time Alt. Az. Time Alt. Az.
13 Nov - 10:01:52 10° NNW 10:05:49 27° NE 10:10:19 10° ESE daylight
13 Nov - 11:47:44 10° WNW 11:52:38 47° SSW 11:58:26 10° SE daylight
13 Nov - 13:37:24 10° SW 13:41:00 16° SSW 13:44:53 10° SSE daylight
13 Nov - 15:28:12 10° SSW 15:30:27 12° S 15:32:46 10° SSE daylight
13 Nov - 17:14:55 10° SSW 17:19:56 20° SSE 17:25:05 10° ESE visible
13 Nov - 19:01:16 10° SW 19:08:27 55° SSE 19:15:29 10° ENE visible
13 Nov - 20:49:10 10° WSW 20:55:54 39° NW 21:02:12 10° NNE visible
14 Nov - 09:40:03 10° NNW 09:43:54 27° NE 09:48:16 10° ESE daylight
14 Nov - 11:25:59 10° WNW 11:30:43 45° SSW 11:36:18 10° SE daylight
14 Nov - 13:15:44 10° SW 13:19:03 15° SSW 13:22:37 10° SSE daylight
14 Nov - 15:06:32 10° SSW 15:08:29 11° S 15:10:28 10° SSE daylight
14 Nov - 16:52:55 10° SSW 16:57:54 20° SSE 17:03:02 10° ESE visible
14 Nov - 18:39:12 10° SW 18:46:21 56° SSE 18:53:28 10° ENE visible
14 Nov - 20:27:06 10° WSW 20:33:48 38° NW 20:40:11 10° NNE visible
15 Nov - 09:18:14 10° NNW 09:22:01 27° NE 09:26:15 10° ESE daylight
15 Nov - 11:04:15 10° WNW 11:08:49 43° SSW 11:14:10 10° SE daylight
15 Nov - 12:54:07 10° SW 12:57:07 14° SSW 13:00:21 10° SSE daylight
15 Nov - 14:44:58 10° S 14:46:31 11° S 14:48:04 10° SSE daylight
15 Nov - 16:30:58 10° SSW 16:35:52 20° SSE 16:40:58 10° ESE visible
15 Nov - 18:17:10 10° SW 18:24:15 57° SE 18:31:26 10° ENE visible
15 Nov - 20:05:02 10° WSW 20:11:42 38° NW 20:18:09 10° NNE visible
16 Nov - 08:56:25 10° NNW 09:00:07 28° NE 09:04:16 10° ESE daylight
16 Nov - 10:42:30 10° W 10:46:55 40° SSW 10:52:03 10° SE daylight
16 Nov - 12:32:32 10° SW 12:35:11 13° SSW 12:38:02 10° SSE daylight
16 Nov - 14:23:36 10° S 14:24:33 10° S 14:25:31 10° SSE daylight
16 Nov - 16:09:01 10° SSW 16:13:50 20° SSE 16:18:53 10° ESE daylight
16 Nov - 17:55:08 10° SW 18:02:09 58° SE 18:09:22 10° ENE visible
16 Nov - 19:42:59 10° WSW 19:49:36 37° NW 19:56:04 10° NNE visible
17 Nov - 08:34:34 10° NNW 08:38:15 28° NE 08:42:17 10° ESE daylight
17 Nov - 10:20:46 10° W 10:25:01 38° SSW 10:29:56 10° SE daylight
17 Nov - 12:10:59 10° SW 12:13:17 13° SSW 12:15:42 10° SSE daylight
17 Nov - 15:47:06 10° SSW 15:51:48 20° SSE 15:56:48 10° ESE daylight
17 Nov - 17:33:07 10° SW 17:40:03 59° SE 17:47:18 10° ENE visible
17 Nov - 19:20:58 10° WSW 19:27:30 36° NW 19:33:59 10° NNE visible
18 Nov - 08:12:44 10° NNW 08:16:22 28° NE 08:20:19 10° ESE daylight
18 Nov - 09:59:02 10° W 10:03:09 36° SSW 10:07:51 10° SE daylight
18 Nov - 11:49:31 10° SW 11:51:22 12° SSW 11:53:19 10° S daylight
18 Nov - 15:25:12 10° SSW 15:29:46 20° SSE 15:34:41 10° ESE daylight
18 Nov - 17:11:07 10° SW 17:17:57 60° SE 17:25:12 10° ENE visible
18 Nov - 18:58:56 10° WSW 19:05:22 35° NW 19:11:52 10° NNE visible
19 Nov - 07:50:53 10° NNW 07:54:30 29° NE 07:58:23 10° ESE daylight
19 Nov - 09:37:17 10° W 09:41:16 34° SSW 09:45:46 10° SE daylight
19 Nov - 11:28:11 10° SSW 11:29:28 11° SSW 11:30:49 10° S daylight
19 Nov - 15:03:18 10° SSW 15:07:46 19° SSE 15:12:33 10° ESE daylight
19 Nov - 16:49:09 10° SW 16:55:51 61° SE 17:03:05 10° ENE visible
19 Nov - 18:36:57 10° WSW 18:43:16 34° NW 18:49:44 10° NNE visible
20 Nov - 07:29:01 10° NNW 07:32:38 30° NE 07:36:28 10° ESE daylight
20 Nov - 09:15:33 10° W 09:19:24 32° SSW 09:23:42 10° SE daylight
20 Nov - 14:41:26 10° SSW 14:45:45 19° SSE 14:50:25 10° ESE daylight
20 Nov - 16:27:11 10° SW 16:33:46 63° SE 16:40:57 10° ENE visible
20 Nov - 18:14:58 10° WSW 18:21:09 33° NW 18:27:34 10° NNE visible
21 Nov - 07:07:08 10° NNW 07:10:46 31° NE 07:14:34 10° ESE daylight
21 Nov - 08:53:48 10° W 08:57:33 30° SSW 09:01:39 10° SSE daylight
21 Nov - 14:19:35 10° SSW 14:23:45 19° SSE 14:28:17 10° ESE daylight
21 Nov - 16:05:14 10° SW 16:11:41 64° SE 16:18:49 10° ENE daylight
21 Nov - 17:53:02 10° WSW 17:59:03 32° NW 18:05:23 10° NNE visible
22 Nov - 06:45:14 10° NNW 06:48:54 32° NE 06:52:41 10° ESE daylight
22 Nov - 08:32:03 10° W 08:35:41 29° SSW 08:39:38 10° SSE daylight
22 Nov - 13:57:45 10° SSW 14:01:45 18° SSE 14:06:08 10° ESE daylight
22 Nov - 15:43:19 10° SW 15:49:36 65° SE 15:56:40 10° ENE daylight
22 Nov - 17:31:06 10° W 17:36:57 31° NW 17:43:11 10° NNE visible
